Weather in Hudson Bay

Canada     52°51′24″N   102°23′47″W
temp.,
°C
wind,
m/s
gust,
m/s
humid.,
%
clouds,
%
prec.,
mm/h
press.,
hPa
HPBL,
m
14 april, wed
wed1400:00−5ne389374 0.0 1036255
03:00−8ne249863 0.0 103773
06:00−9nne259871 0.0 1038116
09:00−4ne347910 0.0 1037401
12:000ene247429 0.0 1035546
15:00+3ene227217 0.0 1033627
18:00+3ese12747 0.0 1031451
21:00−3nnw1194100 0.0 103210
15 april, thu
thu1500:00−4ssw1198100 0.0 103114
03:00−2wsw1296100 0.0 102949
06:00−3wsw119795 0.0 102936
09:00+2wsw228054 0.0 1027368
12:00+7wsw11637 0.0 1025904
15:00+9e125122 0.0 10241293
18:00+8n226195 0.0 1024771
21:00+2ne228982 0.0 102516
16 april, fri
fri1600:00−1ne119521 0.0 102626
03:00−2n019563 0.0 102710
06:00−2s119444 0.0 102811
09:00+4ene117183 0.0 1027327
12:00+7n226899 0.1 10271080
15:00+6nne2372100 0.3 1027815
18:00+6ne247690 0.5 1027536
21:00+2ne228917 0.1 102820
17 april, sat
sat1700:000nne119432 0.1 102910
03:00−1wsw1195100 0.0 102810
06:00−1wsw119445 0.0 102815
09:00+5wsw246811 0.0 1026464
12:00+10w245240 0.0 10231264
15:00+12wnw344899 0.0 10211534
18:00+11nnw245497 0.0 1020810
21:00+7e2376100 0.0 102052
18 april, sun
sun1800:00+6e2382100 0.0 101976
03:00+4se1289100 0.0 101645
06:00+4nne3698100 0.3 1015336
09:00+1nne6129697 2.8 1018697
12:00+3nne6969100 3.1 10191412
15:00+4n6963100 0.3 10201538
18:00+3n6970100 0.8 10211304
21:000n598094 0.3 1024967